Weather in Pikhtovka

Russia / Kemerovo Oblast     56°39′12″N   88°04′39″E
temp.,
°C
wind,
m/s
gust,
m/s
humid.,
%
clouds,
%
prec.,
mm/h
press.,
hPa
HPBL,
m
21 january, fri
fri2101:00−13sw269776 0.3 1034158
04:00−16ssw2498100 0.0 103575
07:00−16ssw119877 0.0 103636
10:00−19s119948 0.0 103610
13:00−12se118960 0.0 1035155
16:00−11ene11945 0.0 103432
19:00−17e2210071 0.0 103429
22:00−18e259968 0.0 103462
22 january, sat
sat2201:00−18e269851 0.0 103489
04:00−18e269831 0.0 1034103
07:00−18ene27985 0.0 1034123
10:00−18e28975 0.0 1035143
13:00−11e36885 0.0 1034200
16:00−10e26925 0.0 1033241
19:00−15e269751 0.0 1035106
22:00−17e269840 0.0 103599
23 january, sun
sun2301:00−19e249899 0.0 103670
04:00−21ese249921 0.0 103571
07:00−21ese2498100 0.0 103670
10:00−20ese249695 0.0 103684
13:00−13ese238576 0.0 1035181
16:00−12e139286 0.0 1035122
19:00−16e2497100 0.0 103676
22:00−20e139993 0.0 103636
24 january, mon
mon2401:00−22e119839 0.0 103630
04:00−23e13995 0.0 103637
07:00−24e13995 0.0 103739
10:00−24e13985 0.0 103749
13:00−15ene12845 0.0 1036184
16:00−13ne12915 0.0 103578
19:00−20ne1110051 0.0 10369
22:00−21ene1110088 0.0 10369
25 january, tue
tue2501:00−22ne0010061 0.0 10369
04:00−19sse009999 0.0 103520
07:00−17ssw1196100 0.0 103444
10:00−16sw1295100 0.3 1034113
13:00−13sw1290100 0.6 1033300
16:00−13ssw2291100 0.3 1032314
19:00−14s139896 0.6 103395
22:00−15s149896 0.1 103395